TimeCDT,TemperatureF,Dew PointF,Humidity,Sea Level PressureIn,VisibilityMPH,Wind Direction,Wind SpeedMPH,Gust SpeedMPH,PrecipitationIn,Events,Conditions,WindDirDegrees,DateUTC
12:52 AM,73.0,66.9,81,30.14,9.0,South,6.9,-,N/A,,Clear,190,2013-07-18 05:52:00
1:52 AM,71.1,66.9,87,30.13,9.0,South,6.9,-,N/A,,Clear,180,2013-07-18 06:52:00
2:52 AM,71.1,66.9,87,30.13,10.0,South,5.8,-,N/A,,Clear,190,2013-07-18 07:52:00
3:52 AM,73.9,68.0,82,30.11,10.0,SSW,6.9,-,N/A,,Clear,200,2013-07-18 08:52:00
4:52 AM,73.9,68.0,82,30.09,10.0,South,8.1,-,N/A,,Clear,190,2013-07-18 09:52:00
5:52 AM,75.0,66.9,76,30.08,10.0,SSW,8.1,-,N/A,,Clear,200,2013-07-18 10:52:00
6:52 AM,75.0,68.0,79,30.08,10.0,South,6.9,-,N/A,,Partly Cloudy,190,2013-07-18 11:52:00
7:52 AM,78.1,69.1,74,30.06,10.0,SSW,10.4,-,N/A,,Clear,200,2013-07-18 12:52:00
8:52 AM,81.0,69.1,67,30.06,10.0,SW,10.4,-,N/A,,Clear,220,2013-07-18 13:52:00
9:52 AM,82.9,69.1,63,30.04,10.0,SW,12.7,20.7,N/A,,Clear,230,2013-07-18 14:52:00
10:52 AM,84.9,68.0,57,30.03,10.0,SW,16.1,24.2,N/A,,Clear,230,2013-07-18 15:52:00
11:52 AM,87.1,68.0,53,30.02,10.0,SW,18.4,25.3,N/A,,Clear,220,2013-07-18 16:52:00
12:52 PM,89.1,68.0,50,29.99,10.0,SW,18.4,25.3,N/A,,Clear,230,2013-07-18 17:52:00
1:52 PM,90.0,66.9,46,29.97,10.0,SW,15.0,24.2,N/A,,Clear,220,2013-07-18 18:52:00
2:52 PM,89.1,66.9,48,29.96,10.0,SSW,20.7,26.5,N/A,,Scattered Clouds,200,2013-07-18 19:52:00
3:52 PM,91.0,68.0,47,29.94,10.0,SSW,16.1,24.2,N/A,,Partly Cloudy,200,2013-07-18 20:52:00
4:52 PM,90.0,66.9,46,29.91,10.0,SSW,19.6,25.3,N/A,,Clear,210,2013-07-18 21:52:00
5:52 PM,89.1,66.9,48,29.89,10.0,SW,16.1,23.0,N/A,,Clear,220,2013-07-18 22:52:00
6:52 PM,88.0,66.9,49,29.87,10.0,SSW,15.0,21.9,N/A,,Clear,210,2013-07-18 23:52:00
7:52 PM,86.0,66.9,53,29.86,10.0,SW,12.7,-,N/A,,Clear,220,2013-07-19 00:52:00
8:52 PM,84.0,66.9,56,29.86,10.0,SW,12.7,20.7,N/A,,Clear,220,2013-07-19 01:52:00
9:52 PM,82.0,66.9,60,29.85,10.0,SSW,9.2,-,N/A,,Clear,200,2013-07-19 02:52:00
10:52 PM,80.1,66.9,64,29.85,10.0,SSW,11.5,-,N/A,,Clear,200,2013-07-19 03:52:00
11:52 PM,81.0,66.9,62,29.84,10.0,SSW,12.7,19.6,N/A,,Clear,210,2013-07-19 04:52:00